{"data":{"norad_id":42844,"intl_designator":"2017-042V","name":"NANOACE","alt_names":[],"object_type":"PAYLOAD","status":"ACTIVE","operator":null,"country":"US","launch_date":"2017-07-14","launch_site_code":"TYMSC","launch_vehicle":null,"mission":null,"orbit_class":"UNKNOWN","rcs_meters":null,"size_class":null,"mass_kg":null,"dimensions":null,"purposes":[],"wikipedia_slug":null,"has_3d_model":false,"image_url":null,"decayed_at":null,"tle_current":{"epoch":"2026-05-24T23:44:27.468384Z","epoch_age_seconds":72593,"freshness":"FRESH","line1":"1 42844U 17042V   26144.98920681  .00010292  00000+0  42823-3 0  9991","line2":"2 42844  97.3735 319.6504 0005717  99.1596 261.0288 15.23937113484542","mean_motion":15.23937113,"eccentricity":0.0005717,"inclination_deg":97.3735,"raan_deg":319.6504,"arg_perigee_deg":99.1596,"mean_anomaly_deg":261.0288,"bstar":0.00042823,"rev_number":48454,"period_min":94.492088139073,"perigee_km":490.05014516064,"apogee_km":497.90772251939,"semimajor_km":6872.11593384,"source":"CELESTRAK","updated_at":"2026-05-25T13:37:55.717609Z"}}}